GFSNIL_prec_cloud_003.txt.gz
Cloud_Cover
0 0 0 0 0 0 0 0 0 0 0 0 0 6 14 25 30 0 0 0 0 0
0 0 0 0 0 0 0 0 0 2 0 3 58 29 2 21 4 1 0 0 0 0
0 0 0 0 0 0 0 0 0 0 0 18 95 99 96 61 50 0 0 15 1 0
0 0 0 0 0 0 0 0 1 0 0 0 8 15 11 0 9 1 0 0 0 0
0 0 0 0 0 0 0 0 0 0 0 0 0 0 3 1 0 19 13 14 7 0
0 0 0 0 0 0 0 0 0 0 0 0 0 0 2 1 17 0 63 0 11 75
0 0 0 0 0 0 0 0 0 0 0 0 0 0 0 12 11 13 31 9 50 99
0 0 0 0 0 0 0 0 0 0 0 0 0 18 6 5 0 6 21 42 8 11
0 0 0 0 0 0 0 0 0 0 0 0 0 0 0 0 0 1 11 50 9 54
0 0 0 0 0 2 0 0 3 0 0 0 0 0 0 0 0 0 13 8 29 87
0 0 0 0 3 5 0 11 0 0 0 0 0 0 0 0 0 0 2 16 99 100
0 0 0 2 4 5 4 2 0 0 94 90 94 79 4 0 0 1 2 11 100 100
0 0 0 0 5 100 100 23 1 29 5 5 42 2 5 5 0 0 5 41 100 100
0 12 17 5 5 100 90 1 0 0 0 18 56 86 100 5 4 0 0 93 100 100

GFSNIL_prec_cloud_006.txt.gz
Cloud_Cover
0 0 0 0 0 0 0 0 0 0 0 0 0 0 0 0 0 0 0 0 0 0
0 0 0 0 0 0 0 0 73 0 0 0 0 60 26 0 0 0 0 0 0 0
0 0 0 0 0 0 0 0 0 0 0 0 0 0 0 0 0 0 0 0 0 0
0 0 0 0 0 0 0 0 0 0 0 0 0 0 0 0 0 0 3 0 0 0
0 0 0 0 0 0 0 0 0 0 0 0 0 0 0 0 0 0 0 0 0 0
1 0 0 0 0 0 0 0 0 0 0 0 0 0 0 0 0 0 0 0 0 0
5 0 0 0 0 0 0 0 0 0 0 0 0 0 0 9 0 0 0 0 0 0
5 0 0 0 0 0 0 0 0 0 0 0 0 0 62 86 20 0 0 0 0 1
5 0 0 3 5 5 0 0 0 0 2 5 5 0 1 0 0 0 0 0 0 14
4 1 5 5 5 5 4 0 0 0 3 29 4 2 0 0 0 0 0 0 0 52
0 5 5 5 5 5 0 0 0 2 5 5 4 0 0 5 24 6 2 1 0 40
0 5 26 8 5 5 5 5 1 3 0 4 2 0 2 16 38 99 92 3 4 72
5 9 14 5 5 8 5 5 0 0 55 88 20 27 6 6 71 100 100 9 4 5
19 35 88 92 5 100 6 14 0 1 0 16 51 49 5 18 90 100 71 16 5 4

GFSNIL_prec_cloud_009.txt.gz
Cloud_Cover
0 0 0 0 0 0 0 0 0 0 0 0 0 0 0 0 0 0 0 0 0 0
0 0 0 0 0 0 0 0 0 0 0 0 0 0 0 0 0 0 0 0 0 0
0 0 0 0 0 0 0 0 0 0 0 0 0 0 0 0 0 0 0 0 0 0
4 0 5 0 0 0 0 0 0 0 0 0 0 0 0 0 0 0 0 0 0 0
2 1 5 5 4 0 0 0 0 5 5 0 0 0 0 0 0 0 0 0 2 0
5 5 5 4 5 0 0 0 0 3 5 5 0 0 0 0 0 0 0 0 0 0
4 5 4 32 0 0 0 0 0 5 5 8 0 0 0 0 16 52 36 0 0 0
99 47 2 4 2 0 0 0 0 5 38 5 0 0 0 0 40 67 6 0 0 0
100 65 5 5 5 0 0 0 0 5 5 0 0 0 0 0 0 0 0 2 0 0
92 65 72 16 4 4 0 0 4 0 0 0 0 1 5 0 0 0 6 8 5 5
77 72 61 9 0 0 1 5 2 1 0 0 4 2 3 0 0 0 4 14 11 16
100 91 52 30 4 4 5 1 0 2 0 14 98 5 5 5 5 5 5 5 65 100
100 100 100 72 64 5 5 3 0 5 2 27 2 0 4 3 4 0 5 10 5 59
100 100 58 87 24 5 95 42 6 98 21 31 3 2 3 5 0 5 15 73 5 6

GFSNIL_prec_cloud_015.txt.gz
Cloud_Cover
0 3 58 100 88 22 99 39 5 5 3 5 5 5 5 5 5 0 7 0 0 0
4 20 100 35 19 100 100 5 5 1 5 5 5 14 5 4 5 3 4 3 2 0
5 68 100 45 100 99 74 100 30 6 5 5 6 84 5 5 4 2 6 0 3 1
35 82 95 18 100 100 100 100 100 13 5 5 54 75 5 5 9 5 1 0 0 0
5 5 16 88 100 100 100 100 100 9 8 93 77 27 15 99 41 33 0 0 0 0
0 8 80 100 100 100 100 100 88 5 98 100 100 100 100 36 90 5 3 0 5 0
0 52 100 100 100 100 100 42 73 10 93 100 100 100 100 48 100 6 15 0 4 5
99 100 100 100 100 100 80 100 100 94 84 100 100 100 97 64 97 5 98 1 92 6
100 100 100 100 100 100 100 100 100 100 100 100 100 100 100 100 14 100 13 3 86 5
100 100 100 100 100 100 99 77 100 98 95 73 100 100 100 99 88 42 14 98 71 5
100 100 100 100 100 100 54 99 100 100 96 100 100 100 100 97 97 97 64 92 74 3
3 35 95 100 81 100 80 100 100 50 98 100 100 100 100 97 100 100 100 36 1 3
100 100 100 100 100 100 83 100 100 100 100 100 100 100 100 95 100 100 90 5 5 5
57 100 100 95 97 100 100 100 100 100 100 100 100 100 100 100 100 100 100 100 5 5

GFSNIL_prec_cloud_021.txt.gz
Cloud_Cover
5 2 5 21 0 8 82 46 41 6 6 5 8 88 37 45 6 5 4 5 97 100
0 0 2 71 11 94 86 28 5 14 89 5 5 5 5 4 4 5 14 10 20 100
0 40 59 62 13 100 100 100 99 77 31 41 24 5 5 9 55 61 92 100 100 100
50 19 65 9 18 100 100 100 100 81 100 100 88 5 8 100 97 59 100 100 100 100
100 27 11 100 100 100 100 100 100 100 100 100 57 18 78 100 57 99 100 100 100 100
94 57 60 21 100 100 100 100 100 100 100 100 100 100 100 100 100 100 100 100 100 100
0 5 5 17 72 100 100 100 100 100 100 100 100 100 100 100 100 100 100 100 100 100
0 0 1 2 2 100 100 100 100 100 100 100 100 100 100 100 100 100 100 95 63 14
31 5 5 5 2 99 100 100 100 100 100 100 100 100 100 100 100 100 6 6 14 5
30 6 74 68 5 4 6 79 99 100 100 100 100 100 100 100 100 100 91 64 100 6
52 43 35 6 0 11 30 73 6 78 100 100 100 100 100 100 100 100 100 100 96 100
55 90 71 5 6 45 16 78 99 100 100 75 97 100 99 100 100 100 100 100 100 100
62 93 88 47 82 96 47 89 100 100 100 99 100 100 100 100 100 100 100 100 100 100
100 97 68 100 100 94 80 87 100 100 100 78 91 84 100 99 100 100 100 100 88 80

GFSNIL_prec_cloud_024.txt.gz
Cloud_Cover
0 0 0 7 0 1 23 84 87 100 100 79 19 5 86 5 5 5 9 5 18 89
0 0 0 1 5 96 8 70 100 80 100 100 100 66 94 72 54 70 29 100 42 100
0 0 1 59 3 5 4 84 98 100 100 95 100 100 86 92 100 5 37 72 98 100
0 0 5 37 51 64 6 14 100 100 100 100 100 97 100 100 58 68 86 100 100 100
0 0 0 5 78 4 96 80 44 100 100 100 100 100 100 99 100 90 100 100 100 100
0 0 5 0 0 0 42 4 93 100 100 100 100 100 100 100 100 100 100 100 100 100
5 5 5 0 0 0 4 3 9 100 100 100 100 100 100 100 100 100 100 100 100 100
33 54 2 0 0 5 9 8 100 100 100 100 100 100 100 100 100 100 100 100 100 70
46 61 2 18 0 0 5 4 5 25 86 100 100 100 100 100 100 100 100 100 100 97
31 53 55 75 48 16 5 1 5 14 4 64 83 100 100 100 100 100 100 100 100 100
34 25 50 94 99 44 1 13 83 97 76 74 21 24 100 100 100 100 100 100 100 100
14 29 90 100 100 100 96 42 95 100 98 89 43 50 98 100 100 100 100 100 100 100
2 40 78 82 100 100 100 100 100 96 100 43 98 45 54 100 100 100 100 98 100 100
8 16 49 100 100 97 95 100 100 100 57 34 86 65 54 58 76 97 100 66 100 100

GFSNIL_prec_cloud_027.txt.gz
Cloud_Cover
0 0 0 0 0 0 0 0 41 35 10 47 100 100 100 100 72 66 81 96 98 64
0 0 0 0 0 0 0 0 1 4 33 89 100 100 99 73 100 78 100 59 98 100
0 0 0 0 0 0 1 2 5 4 21 16 49 100 88 100 99 94 100 100 100 100
0 0 0 0 0 0 0 0 0 17 35 5 60 97 100 99 98 14 73 100 100 100
0 0 0 0 0 0 0 0 0 0 5 5 34 100 100 100 100 100 100 100 100 100
0 0 0 0 0 0 0 0 2 0 4 5 75 100 100 100 100 100 100 100 100 100
0 0 0 0 0 0 0 0 0 0 0 4 4 2 54 100 100 92 99 100 100 100
0 0 0 0 0 15 1 4 3 5 4 0 0 0 2 99 88 100 100 100 100 100
0 0 0 0 0 19 30 7 5 5 5 5 3 0 14 85 99 57 18 96 100 100
0 0 4 67 1 53 58 5 100 100 5 5 5 41 49 100 65 5 5 97 100 100
0 2 51 29 31 31 79 71 31 50 0 3 54 100 99 97 99 2 55 100 100 94
0 2 60 95 88 56 97 100 98 66 75 96 6 100 100 100 83 7 87 97 100 61
1 5 4 81 100 92 94 95 100 100 100 99 92 95 98 100 0 11 97 50 20 10
5 12 100 100 100 80 99 91 100 92 81 100 93 56 92 88 100 100 72 44 59 56

GFSNIL_prec_cloud_030.txt.gz
Cloud_Cover
0 0 0 0 0 0 0 0 0 5 51 0 25 8 42 100 91 48 100 90 84 100
0 0 0 0 0 0 1 0 0 0 37 70 1 10 5 8 68 27 77 92 91 92
0 0 0 0 0 0 0 0 0 62 0 0 4 3 5 40 44 99 100 85 77 100
0 0 0 0 0 0 0 0 0 16 0 0 5 5 5 5 5 7 9 86 100 100
0 0 0 0 0 0 0 0 0 0 3 11 0 0 1 4 5 16 29 7 13 5
0 0 0 0 0 0 0 0 0 4 2 5 0 0 0 0 0 1 39 90 0 55
0 0 0 0 0 0 0 0 0 0 0 2 33 4 0 0 0 25 66 100 54 10
0 0 0 0 0 0 0 0 0 0 7 42 29 90 4 1 2 5 79 94 75 3
0 0 0 0 0 0 0 16 7 1 5 43 20 3 0 0 6 76 68 98 80 0
0 0 0 0 0 0 0 34 25 5 5 72 65 37 48 23 37 100 95 34 99 2
0 0 0 0 0 2 13 64 84 81 46 75 54 48 8 5 56 80 94 96 100 100
0 0 0 3 4 0 19 98 100 100 88 43 74 15 96 23 29 99 100 100 100 38
0 0 17 6 22 26 100 100 100 100 100 100 100 100 100 100 100 100 94 54 12 15
0 0 7 9 8 57 100 100 100 100 100 100 100 100 100 100 100 66 60 57 6 6

GFSNIL_prec_cloud_033.txt.gz
Cloud_Cover
0 0 0 0 0 0 0 0 0 0 57 6 0 0 0 5 5 5 4 5 12 7
0 0 0 0 0 0 0 0 0 0 1 0 0 0 0 0 1 2 5 2 5 5
0 0 0 0 0 0 0 0 0 49 0 0 0 0 0 0 0 0 0 1 1 5
0 0 0 0 0 0 0 0 0 0 0 0 4 4 0 0 0 39 3 0 1 0
0 0 0 0 0 0 0 0 0 0 0 0 0 1 0 0 0 0 4 0 0 0
0 0 0 0 0 0 0 0 0 0 0 0 2 3 4 5 0 0 0 35 12 3
0 0 0 0 0 0 0 0 0 0 0 0 2 5 5 5 2 0 0 51 99 16
0 0 0 0 0 0 0 0 0 0 0 0 5 5 5 5 5 5 4 56 100 76
0 0 0 0 0 0 0 0 0 0 0 3 5 5 5 9 5 5 11 13 42 96
0 0 0 0 0 0 0 0 0 34 50 14 6 82 62 77 25 5 14 76 23 100
5 4 3 5 5 4 0 15 10 65 100 100 100 100 52 32 5 8 18 50 10 89
5 5 5 5 5 0 1 46 60 98 100 88 100 100 81 54 9 77 35 93 8 68
0 0 0 0 9 0 2 32 99 96 51 100 100 97 88 99 98 97 100 100 100 100
0 0 0 2 5 13 23 7 5 5 30 99 100 100 100 99 100 100 100 100 100 100

GFSNIL_prec_cloud_036.txt.gz
Cloud_Cover
0 0 0 0 0 0 0 0 0 0 0 0 0 0 0 0 8 53 0 0 0 3
0 0 0 0 0 0 0 0 0 0 0 0 0 0 0 0 0 30 0 0 0 0
0 0 0 0 0 0 0 0 0 0 0 0 0 0 0 0 0 0 0 0 0 0
0 0 0 0 0 0 0 0 0 0 0 0 0 0 4 5 3 3 1 0 0 0
0 0 0 0 0 0 0 0 0 0 0 0 0 1 5 0 0 5 11 5 2 0
0 0 0 0 0 0 0 0 0 0 0 0 0 0 0 0 2 5 2 4 5 1
0 0 0 0 0 0 0 0 0 0 0 0 0 0 0 0 3 13 35 0 5 5
0 0 0 0 0 0 0 0 3 0 0 5 4 0 4 5 5 35 8 0 5 5
0 0 0 0 0 0 0 1 5 2 0 0 0 0 5 5 5 50 5 5 5 5
0 0 0 0 5 40 1 5 6 0 0 0 0 2 5 46 84 98 35 5 5 5
0 0 0 10 20 59 53 0 58 2 0 0 0 5 78 100 100 100 29 5 5 10
0 0 0 18 39 48 94 40 65 18 0 5 42 100 100 100 100 71 16 9 47 31
4 0 0 4 19 55 55 72 74 49 24 52 100 100 100 100 90 5 5 6 42 100
0 0 0 2 10 66 93 99 86 48 54 100 100 100 100 100 100 49 100 100 82 100

GFSNIL_prec_cloud_042.txt.gz
Cloud_Cover
0 0 0 0 0 0 0 0 0 0 0 0 0 0 0 0 0 0 0 0 0 5
0 0 0 0 0 0 0 0 0 0 0 0 0 0 0 0 0 0 0 0 4 5
0 0 0 0 0 0 0 0 0 0 0 0 0 0 0 0 0 0 0 0 5 26
0 0 0 0 0 0 0 0 0 0 0 0 0 0 0 0 0 2 2 0 14 100
5 1 0 0 0 0 0 0 0 0 0 0 0 0 0 0 0 0 5 5 67 100
100 50 13 0 0 0 0 0 0 0 0 0 0 0 0 0 0 0 5 5 77 100
100 70 99 25 0 0 0 0 0 0 0 0 0 0 0 0 0 0 5 5 91 100
19 24 5 5 100 42 0 0 0 0 0 0 0 0 0 0 0 12 13 5 100 100
5 5 5 21 66 100 17 0 0 0 0 0 0 0 0 0 2 5 5 62 100 92
5 5 0 0 0 0 0 0 0 0 0 0 0 0 0 0 2 4 5 100 100 100
48 4 5 1 4 4 0 0 0 0 0 0 0 0 0 1 4 0 81 100 100 100
99 48 2 2 35 87 4 0 0 0 0 5 5 7 5 5 10 95 100 100 100 100
67 5 2 4 96 30 20 10 0 2 4 7 7 54 13 34 100 100 100 100 100 100
97 84 100 100 56 45 100 61 53 94 84 91 98 44 55 100 100 100 100 100 100 100

GFSNIL_prec_cloud_045.txt.gz
Cloud_Cover
0 0 0 0 0 0 0 0 0 0 0 0 0 0 0 0 0 0 0 0 0 1
0 0 0 0 0 0 0 0 0 0 0 0 0 0 0 0 0 0 0 0 0 2
0 0 0 0 0 0 0 0 0 0 0 0 0 0 0 0 0 0 0 0 0 5
0 0 0 0 0 0 0 0 0 0 0 0 0 0 0 0 0 0 0 0 0 12
0 0 28 6 10 5 5 2 0 0 0 0 0 0 0 0 0 0 0 0 2 16
22 34 100 100 100 64 5 16 5 4 0 0 0 0 0 0 0 0 0 0 5 73
77 100 100 100 100 78 56 14 16 17 5 2 0 0 0 0 0 0 0 5 7 55
31 4 22 76 12 30 6 9 2 5 2 1 0 0 0 0 0 0 4 5 15 5
11 5 2 5 5 5 5 1 2 0 0 0 0 0 0 0 0 0 5 4 3 0
5 4 0 0 0 0 0 0 0 0 0 0 0 1 5 5 1 0 0 0 0 32
2 5 4 18 16 17 1 0 2 10 3 0 0 0 5 5 5 0 0 8 100 100
7 9 5 5 1 0 0 3 4 85 2 0 3 13 26 43 57 3 1 99 100 92
5 5 2 71 85 70 8 0 4 47 43 34 5 13 67 96 98 86 90 72 49 16
0 5 40 100 100 99 84 100 94 99 59 88 20 56 65 100 100 81 100 100 100 100

GFSNIL_prec_cloud_048.txt.gz
Cloud_Cover
0 0 0 0 0 0 0 0 0 0 0 0 0 0 0 0 0 0 0 0 0 0
0 0 0 0 0 0 0 0 0 0 0 0 0 0 0 0 0 0 0 0 0 0
0 0 0 0 0 0 0 0 0 0 0 0 0 0 0 0 2 0 0 0 0 0
0 0 0 0 0 0 0 0 4 4 0 0 0 0 0 0 0 17 0 0 0 0
0 0 0 0 0 35 17 88 5 4 2 5 0 2 0 0 0 4 1 0 0 2
0 0 0 0 0 82 100 100 72 28 5 5 5 4 1 0 0 0 0 0 0 4
56 2 5 12 21 100 100 100 34 5 5 1 0 0 0 0 0 0 1 5 3 1
5 1 2 0 0 5 24 1 0 4 3 2 0 0 0 0 0 0 0 0 0 0
0 0 5 3 0 0 0 0 0 0 0 0 0 0 0 0 0 0 0 0 0 0
1 0 5 1 0 0 0 0 2 0 0 0 0 0 0 0 0 0 0 0 0 1
0 0 2 5 0 0 0 4 0 0 0 0 15 4 1 17 87 4 1 0 32 100
0 0 2 0 1 5 55 12 0 0 0 0 1 59 99 98 59 99 61 100 100 100
0 0 5 5 5 5 5 5 4 7 1 8 65 100 100 100 30 100 100 100 100 100
0 0 0 0 0 0 4 5 51 99 39 95 100 100 100 100 100 100 100 100 100 100